Weather History for Marshfield, WI

Change the Weather History Date:

Tuesday, June 25, 2013

  Actual Average Record
Temperature  
Mean Temperature 72 °F -  
Max Temperature 80 °F 78 °F 95 °F (1988)
Min Temperature 64 °F 54 °F 39 °F (2004)
Cooling Degree Days 6    
Growing Degree Days 22 (Base 50)    
Moisture  
Dew Point 66 °F    
Average Humidity 80    
Maximum Humidity 100    
Minimum Humidity 66    
Precipitation  
Precipitation 0.00 in - - ()
Sea Level Pressure  
Sea Level Pressure 29.84 in    
Wind  
Wind Speed 5 mph (South)    
Max Wind Speed 9 mph    
Max Gust Speed -    
Visibility 10 miles    
Events      
Averages and records for this station are not official NWS values.
T = Trace of Precipitation, MM = Missing Value Source: NWS Daily Summary

Daily Weather History Graph

Daily Weather History Graph

Search for Another Location

Airport:

Trip Planner

Search our weather history database for the weather conditions in past years. The results will help you decide how hot, cold, wet, or windy it might be!

Date:

Astronomy

Jun. 25, 2013 Rise Set
Actual Time 5:16 AM CDT 8:50 PM CDT
Civil Twilight 4:39 AM CDT 9:27 PM CDT
Nautical Twilight 3:50 AM CDT 10:16 PM CDT
Astronomical Twilight 2:46 AM CDT 11:19 PM CDT
Moon 10:26 PM CDT 8:03 AM CDT
Length of Visible Light 16h 47m
Length of Day
15h 33m
Waning Gibbous, 92% of the Moon is Illuminated
Jun 25
Waning Gibbous
Jun 29
Last Quarter
Jul 8
New
Jul 15
First Quarter
Jul 22
Full

Hourly Weather History & Observations

Time (CDT) Temp. Dew Point Humidity Pressure Visibility Wind Dir Wind Speed Gust Speed Precip Events Conditions
12:54 AM 66.0 °F 64.0 °F 93% 29.86 in 10.0 mi SSW 8.1 mph - N/A   Mostly Cloudy
1:54 AM 66.0 °F 63.0 °F 90% 29.86 in 10.0 mi SW 5.8 mph - N/A   Clear
2:54 AM 66.0 °F 63.0 °F 90% 29.85 in 10.0 mi SSW 6.9 mph - N/A   Partly Cloudy
3:54 AM 64.9 °F 64.0 °F 97% 29.86 in 10.0 mi Variable 4.6 mph - 0.00 in   Mostly Cloudy
4:54 AM 64.0 °F 63.0 °F 96% 29.88 in 10.0 mi SW 3.5 mph - N/A   Mostly Cloudy
5:50 AM 64.4 °F 64.4 °F 100% 29.85 in 7.0 mi Calm Calm - N/A   Overcast
5:54 AM 64.9 °F 64.0 °F 97% 29.84 in 7.0 mi WSW 4.6 mph - N/A   Overcast
6:51 AM 64.4 °F 62.6 °F 94% 29.86 in 9.0 mi SW 4.6 mph - N/A   Overcast
6:54 AM 64.9 °F 64.0 °F 97% 29.84 in 9.0 mi WSW 4.6 mph - N/A   Overcast
7:21 AM 64.4 °F 64.4 °F 100% 29.89 in 9.0 mi SW 9.2 mph - N/A   Overcast
7:54 AM 66.0 °F 64.0 °F 93% 29.89 in 10.0 mi SW 8.1 mph - N/A   Overcast
8:34 AM 69.8 °F 64.4 °F 83% 29.90 in 10.0 mi SW 5.8 mph - N/A   Partly Cloudy
8:54 AM 70.0 °F 64.0 °F 81% 29.89 in 10.0 mi Calm Calm - N/A   Mostly Cloudy
9:54 AM 71.1 °F 64.0 °F 78% 29.86 in 10.0 mi Calm Calm - N/A   Mostly Cloudy
10:21 AM 71.6 °F 64.4 °F 78% 29.86 in 10.0 mi SSE 3.5 mph - N/A   Scattered Clouds
10:54 AM 73.9 °F 64.0 °F 71% 29.84 in 10.0 mi Variable 3.5 mph - N/A   Partly Cloudy
11:54 AM 75.0 °F 64.9 °F 71% 29.85 in 10.0 mi South 6.9 mph - N/A   Partly Cloudy
12:54 PM 75.9 °F 66.0 °F 71% 29.85 in 10.0 mi South 5.8 mph - N/A   Partly Cloudy
1:29 PM 77.0 °F 66.2 °F 69% 29.87 in 10.0 mi South 9.2 mph - N/A   Mostly Cloudy
1:54 PM 77.0 °F 64.9 °F 66% 29.84 in 10.0 mi South 8.1 mph - N/A   Scattered Clouds
2:54 PM 78.1 °F 66.9 °F 68% 29.85 in 10.0 mi South 6.9 mph - N/A   Partly Cloudy
3:54 PM 79.0 °F 68.0 °F 69% 29.83 in 10.0 mi South 6.9 mph - N/A   Partly Cloudy
4:54 PM 79.0 °F 68.0 °F 69% 29.82 in 10.0 mi Variable 5.8 mph - N/A   Scattered Clouds
5:01 PM 78.8 °F 68.0 °F 69% 29.83 in 10.0 mi South 5.8 mph - N/A   Mostly Cloudy
5:12 PM 78.8 °F 68.0 °F 69% 29.83 in 10.0 mi South 5.8 mph - N/A   Scattered Clouds
5:20 PM 78.8 °F 68.0 °F 69% 29.83 in 10.0 mi SSE 4.6 mph - N/A   Mostly Cloudy
5:33 PM 78.8 °F 68.0 °F 69% 29.82 in 10.0 mi Variable 4.6 mph - N/A   Scattered Clouds
5:54 PM 79.0 °F 66.9 °F 66% 29.80 in 10.0 mi WSW 3.5 mph - N/A   Partly Cloudy
6:49 PM 78.8 °F 68.0 °F 69% 29.81 in 10.0 mi SE 4.6 mph - N/A   Mostly Cloudy
6:54 PM 79.0 °F 68.0 °F 69% 29.80 in 10.0 mi ESE 4.6 mph - N/A   Scattered Clouds
7:14 PM 78.8 °F 68.0 °F 69% 29.82 in 10.0 mi SE 4.6 mph - N/A   Mostly Cloudy
7:36 PM 78.8 °F 68.0 °F 69% 29.81 in 10.0 mi South 4.6 mph - N/A   Scattered Clouds
7:54 PM 77.0 °F 68.0 °F 74% 29.80 in 10.0 mi SSE 4.6 mph - N/A   Clear
8:54 PM 73.0 °F 68.0 °F 84% 29.80 in 10.0 mi SSE 3.5 mph - N/A   Clear
9:54 PM 72.0 °F 68.0 °F 87% 29.80 in 10.0 mi SE 3.5 mph - N/A   Clear
10:54 PM 71.1 °F 68.0 °F 90% 29.78 in 10.0 mi SSE 3.5 mph - N/A   Clear
11:54 PM 71.1 °F 68.0 °F 90% 29.78 in 10.0 mi SSE 5.8 mph - N/A   Clear